Location: Rounton
(54.4000°N, 1.3500°W)
Time: 02:00:28
(UTC+01:00)

FENGYUN 1C DEB - Pass Details

Date: 27 June 2022
Orbit: 737 x 860 km, 99.3° (Epoch: 14 August)

Event Time Altitude Azimuth Distance (km) Brightness Sun altitude
Exits shadow 22:49:47 - 181° (S) 2,904 ? -6.8°
Reaches altitude 10° 22:51:22 10° 185° (S) 2,294 ? -6.9°
Maximum altitude 22:56:12 47° 259° (W) 993 ? -7.3°
Drops below altitude 10° 23:00:59 10° 334° (NNW) 2,264 ? -7.6°
Sets 23:03:21 0° 340° (NNW) 3,187 ? -7.8°
